Time,TemperatureF,DewpointF,PressureIn,WindDirection,WindDirectionDegrees,WindSpeedMPH,WindSpeedGustMPH,Humidity,HourlyPrecipIn,Conditions,Clouds,dailyrainin,SoftwareType,DateUTC
2013-02-08 00:00:00,24.9,10.2,30.44,East,80,0.0,0.0,53,0.00,,---,0.00,VWS V14.01,2013-02-08 05:00:00,
2013-02-08 00:01:00,24.9,10.2,30.45,East,80,0.0,0.0,53,0.00,,---,0.00,VWS V14.01,2013-02-08 05:01:00,
2013-02-08 00:02:00,24.9,10.2,30.45,East,80,0.0,0.0,53,0.00,,---,0.00,VWS V14.01,2013-02-08 05:02:00,
2013-02-08 00:05:00,24.9,10.2,30.44,East,80,0.0,0.0,53,0.00,,---,0.00,VWS V14.01,2013-02-08 05:05:00,
2013-02-08 00:07:00,24.9,10.2,30.45,East,80,0.0,0.0,53,0.00,,---,0.00,VWS V14.01,2013-02-08 05:07:00,
2013-02-08 00:10:00,25.0,10.3,30.44,East,80,0.0,0.0,53,0.00,,---,0.00,VWS V14.01,2013-02-08 05:10:00,
2013-02-08 00:12:00,25.0,10.7,30.44,East,80,0.0,0.0,54,0.00,,---,0.00,VWS V14.01,2013-02-08 05:12:00,
2013-02-08 00:15:00,25.0,10.7,30.45,East,80,0.0,0.0,54,0.00,,---,0.00,VWS V14.01,2013-02-08 05:15:00,
2013-02-08 00:17:00,25.0,10.7,30.44,East,80,0.0,0.0,54,0.00,,---,0.00,VWS V14.01,2013-02-08 05:17:00,
2013-02-08 00:20:00,25.0,10.7,30.44,East,80,0.0,0.0,54,0.00,,---,0.00,VWS V14.01,2013-02-08 05:20:00,
2013-02-08 00:22:00,25.0,10.7,30.44,East,80,0.0,0.0,54,0.00,,---,0.00,VWS V14.01,2013-02-08 05:22:00,
2013-02-08 00:25:00,25.0,10.7,30.44,East,80,0.0,0.0,54,0.00,,---,0.00,VWS V14.01,2013-02-08 05:25:00,
2013-02-08 00:27:00,25.0,11.1,30.44,East,80,0.0,0.0,55,0.00,,---,0.00,VWS V14.01,2013-02-08 05:27:00,
2013-02-08 00:30:00,25.0,11.1,30.44,East,80,0.0,0.0,55,0.00,,---,0.00,VWS V14.01,2013-02-08 05:30:00,
2013-02-08 00:32:00,25.1,11.6,30.44,East,80,0.0,0.0,56,0.00,,---,0.00,VWS V14.01,2013-02-08 05:32:00,
2013-02-08 00:35:00,25.1,11.6,30.44,East,80,0.0,0.0,56,0.00,,---,0.00,VWS V14.01,2013-02-08 05:35:00,
2013-02-08 00:37:00,25.1,12.0,30.43,East,80,0.0,1.0,57,0.00,,---,0.00,VWS V14.01,2013-02-08 05:37:00,
2013-02-08 00:40:00,25.1,12.0,30.43,East,80,0.0,1.0,57,0.00,,---,0.00,VWS V14.01,2013-02-08 05:40:00,
2013-02-08 00:42:00,25.1,12.0,30.43,East,80,0.0,0.0,57,0.00,,---,0.00,VWS V14.01,2013-02-08 05:42:00,
2013-02-08 00:45:00,25.1,12.0,30.43,East,80,0.0,0.0,57,0.00,,---,0.00,VWS V14.01,2013-02-08 05:45:00,
2013-02-08 00:47:00,25.1,12.4,30.43,East,80,0.0,1.0,58,0.00,,---,0.00,VWS V14.01,2013-02-08 05:47:00,
2013-02-08 00:50:00,25.1,12.0,30.43,East,80,0.0,1.0,57,0.00,,---,0.00,VWS V14.01,2013-02-08 05:50:00,
2013-02-08 00:52:00,25.1,12.0,30.42,East,80,0.0,1.0,57,0.00,,---,0.00,VWS V14.01,2013-02-08 05:52:00,
2013-02-08 00:55:00,25.1,12.0,30.42,East,80,0.0,1.0,57,0.00,,---,0.00,VWS V14.01,2013-02-08 05:55:00,
2013-02-08 00:57:00,25.0,11.9,30.42,East,80,0.0,1.0,57,0.00,,---,0.00,VWS V14.01,2013-02-08 05:57:00,
2013-02-08 01:00:00,25.0,11.9,30.42,East,80,0.0,1.0,57,0.00,,---,0.00,VWS V14.01,2013-02-08 06:00:00,
2013-02-08 01:02:00,24.8,11.7,30.42,East,80,0.0,1.0,57,0.00,,---,0.00,VWS V14.01,2013-02-08 06:02:00,
2013-02-08 01:05:00,24.8,11.7,30.42,East,80,0.0,1.0,57,0.00,,---,0.00,VWS V14.01,2013-02-08 06:05:00,
2013-02-08 01:08:00,24.7,12.0,30.42,East,80,0.0,1.0,58,0.00,,---,0.00,VWS V14.01,2013-02-08 06:08:00,
2013-02-08 01:10:00,24.7,12.0,30.42,East,80,0.0,1.0,58,0.00,,---,0.00,VWS V14.01,2013-02-08 06:10:00,
2013-02-08 01:13:00,24.5,12.2,30.42,East,80,0.0,1.0,59,0.00,,---,0.00,VWS V14.01,2013-02-08 06:13:00,
2013-02-08 01:15:00,24.5,12.2,30.42,East,80,0.0,1.0,59,0.00,,---,0.00,VWS V14.01,2013-02-08 06:15:00,
2013-02-08 01:18:00,24.4,12.5,30.42,East,80,0.0,0.0,60,0.00,,---,0.00,VWS V14.01,2013-02-08 06:18:00,
2013-02-08 01:20:00,24.4,12.5,30.42,East,80,0.0,0.0,60,0.00,,---,0.00,VWS V14.01,2013-02-08 06:20:00,
2013-02-08 01:23:00,24.2,12.7,30.41,East,80,0.0,1.0,61,0.00,,---,0.00,VWS V14.01,2013-02-08 06:23:00,
2013-02-08 01:25:00,24.2,12.7,30.41,East,80,0.0,1.0,61,0.00,,---,0.00,VWS V14.01,2013-02-08 06:25:00,
2013-02-08 01:28:00,24.0,12.5,30.41,East,80,0.0,0.0,61,0.00,,---,0.00,VWS V14.01,2013-02-08 06:28:00,
2013-02-08 01:30:00,24.0,12.5,30.41,East,80,0.0,0.0,61,0.00,,---,0.00,VWS V14.01,2013-02-08 06:30:00,
2013-02-08 01:33:00,23.8,12.7,30.41,East,80,0.0,1.0,62,0.00,,---,0.00,VWS V14.01,2013-02-08 06:33:00,
2013-02-08 01:35:00,23.8,12.7,30.41,East,80,0.0,1.0,62,0.00,,---,0.00,VWS V14.01,2013-02-08 06:35:00,
2013-02-08 01:38:00,23.7,13.0,30.41,East,80,0.0,0.0,63,0.00,,---,0.00,VWS V14.01,2013-02-08 06:38:00,
2013-02-08 01:40:00,23.7,13.0,30.41,East,80,0.0,0.0,63,0.00,,---,0.00,VWS V14.01,2013-02-08 06:40:00,
2013-02-08 01:43:00,23.6,13.6,30.42,East,80,0.0,0.0,65,0.00,,---,0.00,VWS V14.01,2013-02-08 06:43:00,
2013-02-08 01:45:00,23.6,13.6,30.42,East,80,0.0,0.0,65,0.00,,---,0.00,VWS V14.01,2013-02-08 06:45:00,
2013-02-08 01:48:00,23.5,13.8,30.42,East,80,0.0,0.0,66,0.00,,---,0.00,VWS V14.01,2013-02-08 06:48:00,
2013-02-08 01:50:00,23.5,13.8,30.42,East,80,0.0,0.0,66,0.00,,---,0.00,VWS V14.01,2013-02-08 06:50:00,
2013-02-08 01:53:00,23.5,14.2,30.42,East,80,0.0,0.0,67,0.00,,---,0.00,VWS V14.01,2013-02-08 06:53:00,
2013-02-08 01:55:00,23.5,14.2,30.42,East,80,0.0,0.0,67,0.00,,---,0.00,VWS V14.01,2013-02-08 06:55:00,
2013-02-08 01:58:00,23.5,14.2,30.41,East,80,1.0,1.0,67,0.00,,---,0.00,VWS V14.01,2013-02-08 06:58:00,
2013-02-08 02:00:00,23.5,14.2,30.41,East,80,1.0,1.0,67,0.00,,---,0.00,VWS V14.01,2013-02-08 07:00:00,
2013-02-08 02:03:00,23.6,14.9,30.40,East,80,0.0,2.0,69,0.00,,---,0.00,VWS V14.01,2013-02-08 07:03:00,
2013-02-08 02:05:00,23.6,14.9,30.40,East,80,0.0,2.0,69,0.00,,---,0.00,VWS V14.01,2013-02-08 07:05:00,
2013-02-08 02:08:00,23.7,15.0,30.40,East,80,0.0,1.0,69,0.00,,---,0.00,VWS V14.01,2013-02-08 07:08:00,
2013-02-08 02:10:00,23.7,15.0,30.40,East,80,0.0,1.0,69,0.00,,---,0.00,VWS V14.01,2013-02-08 07:10:00,
2013-02-08 02:13:00,23.9,15.2,30.40,East,80,0.0,1.0,69,0.00,,---,0.00,VWS V14.01,2013-02-08 07:13:00,
2013-02-08 02:15:00,23.9,15.2,30.40,East,80,0.0,1.0,69,0.00,,---,0.00,VWS V14.01,2013-02-08 07:15:00,
2013-02-08 02:18:00,24.0,15.6,30.40,NNE,24,0.0,3.0,70,0.00,,---,0.00,VWS V14.01,2013-02-08 07:18:00,
2013-02-08 02:20:00,24.0,15.6,30.40,NNE,24,0.0,3.0,70,0.00,,---,0.00,VWS V14.01,2013-02-08 07:20:00,
2013-02-08 02:23:00,24.2,16.2,30.39,NNE,33,0.0,2.0,71,0.00,,---,0.00,VWS V14.01,2013-02-08 07:23:00,
2013-02-08 02:25:00,24.2,16.2,30.39,NNE,33,0.0,2.0,71,0.00,,---,0.00,VWS V14.01,2013-02-08 07:25:00,
2013-02-08 02:28:00,24.4,16.4,30.39,NE,34,0.0,2.0,71,0.00,,---,0.00,VWS V14.01,2013-02-08 07:28:00,
2013-02-08 02:30:00,24.4,16.4,30.39,NE,34,0.0,2.0,71,0.00,,---,0.00,VWS V14.01,2013-02-08 07:30:00,
2013-02-08 02:33:00,24.6,16.9,30.39,NE,40,2.0,2.0,72,0.00,,---,0.00,VWS V14.01,2013-02-08 07:33:00,
2013-02-08 02:35:00,24.6,16.9,30.39,NE,40,2.0,2.0,72,0.00,,---,0.00,VWS V14.01,2013-02-08 07:35:00,
2013-02-08 02:38:00,24.8,17.1,30.38,NE,48,0.0,4.0,72,0.00,,---,0.00,VWS V14.01,2013-02-08 07:38:00,
2013-02-08 02:40:00,24.8,17.1,30.38,NE,48,0.0,4.0,72,0.00,,---,0.00,VWS V14.01,2013-02-08 07:40:00,
2013-02-08 02:43:00,24.9,17.5,30.38,NE,49,0.0,1.0,73,0.00,,---,0.00,VWS V14.01,2013-02-08 07:43:00,
2013-02-08 02:45:00,24.9,17.5,30.38,NE,49,0.0,1.0,73,0.00,,---,0.00,VWS V14.01,2013-02-08 07:45:00,
2013-02-08 02:48:00,25.1,18.0,30.38,NE,54,2.0,5.0,74,0.00,,---,0.00,VWS V14.01,2013-02-08 07:48:00,
2013-02-08 02:50:00,25.1,18.0,30.38,NE,54,2.0,5.0,74,0.00,,---,0.00,VWS V14.01,2013-02-08 07:50:00,
2013-02-08 02:53:00,25.3,18.2,30.38,NE,54,1.0,3.0,74,0.00,,---,0.00,VWS V14.01,2013-02-08 07:53:00,
2013-02-08 02:55:00,25.3,18.2,30.38,NE,54,1.0,3.0,74,0.00,,---,0.00,VWS V14.01,2013-02-08 07:55:00,
2013-02-08 02:58:00,25.4,18.6,30.37,NE,54,2.0,2.0,75,0.00,,---,0.00,VWS V14.01,2013-02-08 07:58:00,
2013-02-08 03:00:00,25.4,18.6,30.37,NE,54,2.0,2.0,75,0.00,,---,0.00,VWS V14.01,2013-02-08 08:00:00,
2013-02-08 03:03:00,25.6,19.1,30.36,NE,36,0.0,4.0,76,0.00,,---,0.00,VWS V14.01,2013-02-08 08:03:00,
2013-02-08 03:05:00,25.6,19.1,30.36,NE,36,0.0,4.0,76,0.00,,---,0.00,VWS V14.01,2013-02-08 08:05:00,
2013-02-08 03:08:00,25.7,19.5,30.36,ENE,76,2.0,4.0,77,0.00,,---,0.00,VWS V14.01,2013-02-08 08:08:00,
2013-02-08 03:10:00,25.7,19.5,30.36,ENE,76,2.0,4.0,77,0.00,,---,0.00,VWS V14.01,2013-02-08 08:10:00,
2013-02-08 03:13:00,25.8,19.9,30.36,ESE,110,0.0,4.0,78,0.00,,---,0.00,VWS V14.01,2013-02-08 08:13:00,
2013-02-08 03:15:00,25.8,19.9,30.36,ESE,110,0.0,4.0,78,0.00,,---,0.00,VWS V14.01,2013-02-08 08:15:00,
2013-02-08 03:18:00,25.9,20.3,30.36,ENE,76,1.0,4.0,79,0.00,,---,0.00,VWS V14.01,2013-02-08 08:18:00,
2013-02-08 03:20:00,25.9,20.3,30.36,ENE,76,1.0,4.0,79,0.00,,---,0.00,VWS V14.01,2013-02-08 08:20:00,
2013-02-08 03:23:00,26.1,20.8,30.35,ENE,68,0.0,5.0,80,0.00,,---,0.00,VWS V14.01,2013-02-08 08:23:00,
2013-02-08 03:25:00,26.1,20.8,30.35,ENE,68,0.0,5.0,80,0.00,,---,0.00,VWS V14.01,2013-02-08 08:25:00,
2013-02-08 03:28:00,26.2,21.2,30.35,ENE,73,1.0,6.0,81,0.00,,---,0.00,VWS V14.01,2013-02-08 08:28:00,
2013-02-08 03:30:00,26.2,21.2,30.35,ENE,73,1.0,6.0,81,0.00,,---,0.00,VWS V14.01,2013-02-08 08:30:00,
2013-02-08 03:33:00,26.2,21.2,30.35,East,92,4.0,5.0,81,0.00,,---,0.00,VWS V14.01,2013-02-08 08:33:00,
2013-02-08 03:35:00,26.2,21.2,30.35,East,92,4.0,5.0,81,0.00,,---,0.00,VWS V14.01,2013-02-08 08:35:00,
2013-02-08 03:38:00,26.3,21.6,30.35,East,91,4.0,4.0,82,0.00,,---,0.00,VWS V14.01,2013-02-08 08:38:00,
2013-02-08 03:40:00,26.3,21.6,30.35,ENE,61,0.0,5.0,82,0.00,,---,0.00,VWS V14.01,2013-02-08 08:40:00,
2013-02-08 03:43:00,26.3,21.6,30.34,SE,135,6.0,6.0,82,0.00,,---,0.00,VWS V14.01,2013-02-08 08:43:00,
2013-02-08 03:45:00,26.3,21.6,30.34,ENE,74,0.0,5.0,82,0.00,,---,0.00,VWS V14.01,2013-02-08 08:45:00,
2013-02-08 03:48:00,26.4,22.0,30.34,ENE,74,4.0,4.0,83,0.00,,---,0.00,VWS V14.01,2013-02-08 08:48:00,
2013-02-08 03:50:00,26.4,22.0,30.34,East,84,3.0,6.0,83,0.00,,---,0.00,VWS V14.01,2013-02-08 08:50:00,
2013-02-08 03:53:00,26.5,22.0,30.34,East,79,0.0,1.0,83,0.00,,---,0.00,VWS V14.01,2013-02-08 08:53:00,
2013-02-08 03:55:00,26.5,22.0,30.34,East,79,1.0,5.0,83,0.00,,---,0.00,VWS V14.01,2013-02-08 08:55:00,
2013-02-08 03:59:00,26.5,22.3,30.34,ESE,104,0.0,2.0,84,0.00,,---,0.00,VWS V14.01,2013-02-08 08:59:00,
2013-02-08 04:00:00,26.5,22.0,30.34,ESE,105,1.0,4.0,83,0.00,,---,0.00,VWS V14.01,2013-02-08 09:00:00,
2013-02-08 04:04:00,26.6,22.4,30.34,NE,37,1.0,2.0,84,0.00,,---,0.00,VWS V14.01,2013-02-08 09:04:00,
2013-02-08 04:05:00,25.2,19.9,30.33,NE,42,0.0,2.0,80,0.00,,---,0.00,VWS V14.01,2013-02-08 09:05:00,
2013-02-08 04:09:00,26.6,22.4,30.34,NE,45,0.0,1.0,84,0.00,,---,0.00,VWS V14.01,2013-02-08 09:09:00,
2013-02-08 04:10:00,26.6,22.4,30.34,NE,45,1.0,4.0,84,0.00,,---,0.00,VWS V14.01,2013-02-08 09:10:00,
2013-02-08 04:14:00,26.7,22.5,30.34,NE,46,2.0,3.0,84,0.00,,---,0.00,VWS V14.01,2013-02-08 09:14:00,
2013-02-08 04:15:00,26.7,22.8,30.34,ENE,57,1.0,2.0,85,0.00,,---,0.00,VWS V14.01,2013-02-08 09:15:00,
2013-02-08 04:19:00,26.6,22.4,30.34,NNE,18,1.0,3.0,84,0.00,,---,0.00,VWS V14.01,2013-02-08 09:19:00,
2013-02-08 04:20:00,26.6,22.4,30.34,NNE,18,0.0,3.0,84,0.00,,---,0.00,VWS V14.01,2013-02-08 09:20:00,
2013-02-08 04:24:00,26.5,22.3,30.33,NE,43,0.0,2.0,84,0.00,,---,0.00,VWS V14.01,2013-02-08 09:24:00,
2013-02-08 04:25:00,26.5,22.3,30.33,NE,34,1.0,3.0,84,0.00,,---,0.00,VWS V14.01,2013-02-08 09:25:00,
2013-02-08 04:29:00,26.4,22.0,30.34,ENE,63,0.0,1.0,83,0.00,,---,0.00,VWS V14.01,2013-02-08 09:29:00,
2013-02-08 04:30:00,26.4,22.0,30.33,ENE,63,1.0,2.0,83,0.00,,---,0.00,VWS V14.01,2013-02-08 09:30:00,
2013-02-08 04:34:00,26.2,21.5,30.34,ENE,63,1.0,2.0,82,0.00,,---,0.00,VWS V14.01,2013-02-08 09:34:00,
2013-02-08 04:35:00,26.2,21.8,30.34,ENE,63,0.0,2.0,83,0.00,,---,0.00,VWS V14.01,2013-02-08 09:35:00,
2013-02-08 04:39:00,26.0,21.3,30.34,North,9,2.0,3.0,82,0.00,,---,0.00,VWS V14.01,2013-02-08 09:39:00,
2013-02-08 04:40:00,26.1,21.4,30.34,NE,39,1.0,3.0,82,0.00,,---,0.00,VWS V14.01,2013-02-08 09:40:00,
2013-02-08 04:44:00,25.8,20.8,30.34,NE,36,0.0,2.0,81,0.00,,---,0.00,VWS V14.01,2013-02-08 09:44:00,
2013-02-08 04:45:00,25.9,21.2,30.34,NE,36,1.0,3.0,82,0.00,,---,0.00,VWS V14.01,2013-02-08 09:45:00,
2013-02-08 04:49:00,25.6,20.6,30.34,North,5,1.0,1.0,81,0.00,,---,0.00,VWS V14.01,2013-02-08 09:49:00,
2013-02-08 04:50:00,25.7,20.7,30.34,North,5,0.0,4.0,81,0.00,,---,0.00,VWS V14.01,2013-02-08 09:50:00,
2013-02-08 04:54:00,25.4,20.1,30.34,NE,56,0.0,1.0,80,0.00,,---,0.00,VWS V14.01,2013-02-08 09:54:00,
2013-02-08 04:55:00,25.5,20.2,30.34,NE,56,0.0,3.0,80,0.00,,---,0.00,VWS V14.01,2013-02-08 09:55:00,
2013-02-08 04:59:00,25.2,19.9,30.34,NE,41,0.0,2.0,80,0.00,,---,0.00,VWS V14.01,2013-02-08 09:59:00,
2013-02-08 05:00:00,25.3,20.0,30.34,NE,56,0.0,3.0,80,0.00,,---,0.00,VWS V14.01,2013-02-08 10:00:00,
2013-02-08 05:04:00,25.1,20.1,30.33,NE,42,0.0,2.0,81,0.00,,---,0.00,VWS V14.01,2013-02-08 10:04:00,
2013-02-08 05:05:00,25.2,19.9,30.33,NE,42,0.0,2.0,80,0.00,,---,0.00,VWS V14.01,2013-02-08 10:05:00,
2013-02-08 05:09:00,25.0,20.0,30.33,East,84,1.0,2.0,81,0.00,,---,0.00,VWS V14.01,2013-02-08 10:09:00,
2013-02-08 05:10:00,25.1,20.1,30.33,NNE,32,0.0,3.0,81,0.00,,---,0.00,VWS V14.01,2013-02-08 10:10:00,
2013-02-08 05:14:00,24.9,19.9,30.33,North,355,1.0,3.0,81,0.00,,---,0.00,VWS V14.01,2013-02-08 10:14:00,
2013-02-08 05:15:00,24.9,19.9,30.33,ENE,60,0.0,3.0,81,0.00,,---,0.00,VWS V14.01,2013-02-08 10:15:00,
2013-02-08 05:19:00,24.7,19.7,30.33,NNW,347,0.0,3.0,81,0.00,,---,0.00,VWS V14.01,2013-02-08 10:19:00,
2013-02-08 05:20:00,24.7,19.7,30.33,NNW,346,2.0,4.0,81,0.00,,---,0.00,VWS V14.01,2013-02-08 10:20:00,
2013-02-08 05:24:00,24.5,19.8,30.33,NNW,347,2.0,5.0,82,0.00,,---,0.00,VWS V14.01,2013-02-08 10:24:00,
2013-02-08 05:25:00,24.6,19.6,30.33,North,355,2.0,3.0,81,0.00,,---,0.00,VWS V14.01,2013-02-08 10:25:00,
2013-02-08 05:29:00,24.4,19.7,30.33,NNE,33,0.0,2.0,82,0.00,,---,0.00,VWS V14.01,2013-02-08 10:29:00,
2013-02-08 05:30:00,24.4,19.7,30.33,NNE,33,0.0,5.0,82,0.00,,---,0.00,VWS V14.01,2013-02-08 10:30:00,
2013-02-08 05:34:00,24.2,19.5,30.32,NNE,24,0.0,3.0,82,0.00,,---,0.00,VWS V14.01,2013-02-08 10:34:00,
2013-02-08 05:35:00,24.2,19.5,30.33,NNE,12,1.0,3.0,82,0.00,,---,0.00,VWS V14.01,2013-02-08 10:35:00,
2013-02-08 05:40:00,24.0,19.6,30.32,North,10,1.0,1.0,83,0.00,,---,0.00,VWS V14.01,2013-02-08 10:40:00,
2013-02-08 05:45:00,24.0,19.6,30.32,North,9,1.0,3.0,83,0.00,,---,0.00,VWS V14.01,2013-02-08 10:45:00,
2013-02-08 05:50:00,23.9,19.8,30.32,NNE,26,2.0,2.0,84,0.00,,---,0.00,VWS V14.01,2013-02-08 10:50:00,
2013-02-08 05:55:00,23.9,19.8,30.31,NNE,26,0.0,3.0,84,0.00,,---,0.00,VWS V14.01,2013-02-08 10:55:00,
2013-02-08 06:00:00,23.8,20.0,30.32,North,351,2.0,4.0,85,0.00,,---,0.00,VWS V14.01,2013-02-08 11:00:00,
2013-02-08 06:05:00,23.7,19.9,30.31,North,351,1.0,3.0,85,0.00,,---,0.00,VWS V14.01,2013-02-08 11:05:00,
2013-02-08 06:10:00,23.7,19.9,30.32,NE,53,2.0,2.0,85,0.00,,---,0.00,VWS V14.01,2013-02-08 11:10:00,
2013-02-08 06:15:00,23.7,20.1,30.32,NE,53,0.0,2.0,86,0.00,,---,0.00,VWS V14.01,2013-02-08 11:15:00,
2013-02-08 06:20:00,23.6,20.0,30.31,North,5,1.0,1.0,86,0.00,,---,0.00,VWS V14.01,2013-02-08 11:20:00,
2013-02-08 06:25:00,23.7,20.4,30.31,North,355,1.0,1.0,87,0.00,,---,0.00,VWS V14.01,2013-02-08 11:25:00,
2013-02-08 06:30:00,23.7,20.4,30.31,NNE,14,0.0,2.0,87,0.00,,---,0.00,VWS V14.01,2013-02-08 11:30:00,
2013-02-08 06:35:00,23.8,20.5,30.31,North,5,3.0,3.0,87,0.00,,---,0.00,VWS V14.01,2013-02-08 11:35:00,
2013-02-08 06:40:00,23.8,20.5,30.31,NNW,334,0.0,3.0,87,0.00,,---,0.00,VWS V14.01,2013-02-08 11:40:00,
2013-02-08 06:45:00,23.8,20.5,30.31,NE,47,0.0,2.0,87,0.00,,---,0.00,VWS V14.01,2013-02-08 11:45:00,
2013-02-08 06:50:00,23.8,20.5,30.31,North,351,0.0,2.0,87,0.00,,---,0.00,VWS V14.01,2013-02-08 11:50:00,
2013-02-08 06:55:00,23.8,20.5,30.31,North,355,0.0,3.0,87,0.00,,---,0.00,VWS V14.01,2013-02-08 11:55:00,
2013-02-08 07:00:00,23.8,20.5,30.31,NE,44,1.0,3.0,87,0.00,,---,0.00,VWS V14.01,2013-02-08 12:00:00,
2013-02-08 07:05:00,23.8,20.5,30.31,NNW,346,0.0,1.0,87,0.00,,---,0.00,VWS V14.01,2013-02-08 12:05:00,
2013-02-08 07:10:00,23.8,20.5,30.31,NNW,346,0.0,1.0,87,0.00,,---,0.00,VWS V14.01,2013-02-08 12:10:00,
2013-02-08 07:15:00,23.7,20.4,30.31,NNE,29,0.0,4.0,87,0.00,,---,0.00,VWS V14.01,2013-02-08 12:15:00,
2013-02-08 07:20:00,23.7,20.4,30.31,NNE,30,2.0,4.0,87,0.00,,---,0.00,VWS V14.01,2013-02-08 12:20:00,
2013-02-08 07:21:00,23.6,20.3,30.31,NNE,30,2.0,3.0,87,0.00,,---,0.00,VWS V14.01,2013-02-08 12:21:00,
2013-02-08 07:25:00,23.6,20.3,30.31,North,360,0.0,4.0,87,0.00,,---,0.00,VWS V14.01,2013-02-08 12:25:00,
2013-02-08 07:26:00,23.6,20.3,30.31,NNE,17,2.0,3.0,87,0.00,,---,0.00,VWS V14.01,2013-02-08 12:26:00,
2013-02-08 07:30:00,23.6,20.3,30.31,North,5,2.0,4.0,87,0.00,,---,0.00,VWS V14.01,2013-02-08 12:30:00,
2013-02-08 07:31:00,23.5,20.2,30.31,NE,51,2.0,3.0,87,0.00,,---,0.00,VWS V14.01,2013-02-08 12:31:00,
2013-02-08 07:35:00,23.5,20.2,30.31,ENE,73,1.0,3.0,87,0.00,,---,0.00,VWS V14.01,2013-02-08 12:35:00,
2013-02-08 07:36:00,23.5,20.2,30.31,NNE,33,3.0,5.0,87,0.00,,---,0.00,VWS V14.01,2013-02-08 12:36:00,
2013-02-08 07:40:00,23.5,20.2,30.31,NE,41,0.0,5.0,87,0.00,,---,0.00,VWS V14.01,2013-02-08 12:40:00,
2013-02-08 07:41:00,23.4,20.1,30.31,NNE,17,1.0,5.0,87,0.00,,---,0.00,VWS V14.01,2013-02-08 12:41:00,
2013-02-08 07:45:00,23.4,20.1,30.31,NNE,13,0.0,5.0,87,0.00,,---,0.00,VWS V14.01,2013-02-08 12:45:00,
2013-02-08 07:46:00,23.4,20.1,30.31,NNE,23,1.0,3.0,87,0.00,,---,0.00,VWS V14.01,2013-02-08 12:46:00,
2013-02-08 07:50:00,23.4,20.1,30.30,ENE,62,3.0,4.0,87,0.00,,---,0.00,VWS V14.01,2013-02-08 12:50:00,
2013-02-08 07:51:00,23.4,20.1,30.30,ENE,61,1.0,3.0,87,0.00,,---,0.00,VWS V14.01,2013-02-08 12:51:00,
2013-02-08 07:55:00,23.3,20.0,30.30,NNW,346,0.0,3.0,87,0.00,,---,0.00,VWS V14.01,2013-02-08 12:55:00,
2013-02-08 07:56:00,23.4,20.1,30.30,NE,38,0.0,4.0,87,0.00,,---,0.00,VWS V14.01,2013-02-08 12:56:00,
2013-02-08 08:00:00,23.4,20.1,30.30,NE,34,2.0,4.0,87,0.00,,---,0.00,VWS V14.01,2013-02-08 13:00:00,
2013-02-08 08:01:00,23.3,20.0,30.30,ENE,57,1.0,3.0,87,0.00,,---,0.00,VWS V14.01,2013-02-08 13:01:00,
2013-02-08 08:05:00,23.4,20.1,30.30,NNW,335,1.0,3.0,87,0.00,,---,0.00,VWS V14.01,2013-02-08 13:05:00,
2013-02-08 08:06:00,23.3,20.0,30.30,NE,53,3.0,4.0,87,0.00,,---,0.00,VWS V14.01,2013-02-08 13:06:00,
2013-02-08 08:10:00,23.3,20.0,30.30,NE,52,0.0,4.0,87,0.00,,---,0.00,VWS V14.01,2013-02-08 13:10:00,
2013-02-08 08:11:00,23.2,19.9,30.30,NNE,24,3.0,4.0,87,0.00,,---,0.00,VWS V14.01,2013-02-08 13:11:00,
2013-02-08 08:15:00,23.2,19.9,30.30,NNE,24,3.0,4.0,87,0.00,,---,0.00,VWS V14.01,2013-02-08 13:15:00,
2013-02-08 08:16:00,23.1,19.8,30.30,ENE,57,1.0,3.0,87,0.00,,---,0.00,VWS V14.01,2013-02-08 13:16:00,
2013-02-08 08:20:00,23.1,19.8,30.30,NNE,14,3.0,3.0,87,0.00,,---,0.00,VWS V14.01,2013-02-08 13:20:00,
2013-02-08 08:21:00,23.1,19.8,30.29,NNW,336,3.0,4.0,87,0.00,,---,0.00,VWS V14.01,2013-02-08 13:21:00,
2013-02-08 08:25:00,23.0,19.7,30.29,NNW,340,1.0,4.0,87,0.00,,---,0.00,VWS V14.01,2013-02-08 13:25:00,
2013-02-08 08:26:00,23.0,19.7,30.29,North,350,3.0,5.0,87,0.00,,---,0.00,VWS V14.01,2013-02-08 13:26:00,
2013-02-08 08:30:00,22.9,19.4,30.29,NNW,348,2.0,5.0,86,0.00,,---,0.00,VWS V14.01,2013-02-08 13:30:00,
2013-02-08 08:32:00,22.9,19.4,30.29,NE,34,1.0,3.0,86,0.00,,---,0.00,VWS V14.01,2013-02-08 13:32:00,
2013-02-08 08:35:00,22.9,19.4,30.29,NNE,24,0.0,3.0,86,0.00,,---,0.00,VWS V14.01,2013-02-08 13:35:00,
2013-02-08 08:37:00,22.9,19.4,30.29,North,355,1.0,4.0,86,0.00,,---,0.00,VWS V14.01,2013-02-08 13:37:00,
2013-02-08 08:40:00,22.9,19.4,30.29,North,355,0.0,4.0,86,0.00,,---,0.00,VWS V14.01,2013-02-08 13:40:00,
2013-02-08 08:42:00,22.9,19.4,30.29,NE,46,0.0,4.0,86,0.00,,---,0.00,VWS V14.01,2013-02-08 13:42:00,
2013-02-08 08:45:00,22.8,19.2,30.28,NE,43,1.0,4.0,86,0.00,,---,0.00,VWS V14.01,2013-02-08 13:45:00,
2013-02-08 08:47:00,22.8,19.2,30.28,NE,50,0.0,4.0,86,0.00,,---,0.00,VWS V14.01,2013-02-08 13:47:00,
2013-02-08 08:50:00,22.8,19.2,30.28,ENE,58,5.0,5.0,86,0.00,,---,0.00,VWS V14.01,2013-02-08 13:50:00,
2013-02-08 08:52:00,22.8,19.2,30.28,NE,53,0.0,5.0,86,0.00,,---,0.00,VWS V14.01,2013-02-08 13:52:00,
2013-02-08 08:55:00,22.8,19.2,30.28,NE,53,1.0,5.0,86,0.00,,---,0.00,VWS V14.01,2013-02-08 13:55:00,
2013-02-08 08:57:00,22.8,19.2,30.28,NNE,22,1.0,6.0,86,0.00,,---,0.00,VWS V14.01,2013-02-08 13:57:00,
2013-02-08 09:00:00,22.8,19.2,30.28,NNE,25,3.0,6.0,86,0.00,,---,0.00,VWS V14.01,2013-02-08 14:00:00,
2013-02-08 09:02:00,22.9,19.4,30.28,NE,40,4.0,4.0,86,0.00,,---,0.00,VWS V14.01,2013-02-08 14:02:00,
2013-02-08 09:05:00,22.9,19.4,30.28,NE,38,0.0,4.0,86,0.00,,---,0.00,VWS V14.01,2013-02-08 14:05:00,
2013-02-08 09:07:00,22.9,19.4,30.27,NNE,22,2.0,5.0,86,0.00,,---,0.00,VWS V14.01,2013-02-08 14:07:00,
2013-02-08 09:10:00,22.9,19.4,30.27,NNE,24,0.0,5.0,86,0.00,,---,0.00,VWS V14.01,2013-02-08 14:10:00,
2013-02-08 09:12:00,22.9,19.4,30.27,NNE,29,2.0,7.0,86,0.00,,---,0.00,VWS V14.01,2013-02-08 14:12:00,
2013-02-08 09:15:00,22.9,19.4,30.27,North,11,1.0,7.0,86,0.00,,---,0.00,VWS V14.01,2013-02-08 14:15:00,
2013-02-08 09:17:00,23.0,19.5,30.27,ENE,57,2.0,6.0,86,0.00,,---,0.00,VWS V14.01,2013-02-08 14:17:00,
2013-02-08 09:20:00,23.0,19.4,30.27,ENE,58,1.0,6.0,86,0.00,,---,0.00,VWS V14.01,2013-02-08 14:20:00,
2013-02-08 09:22:00,23.0,19.5,30.26,NNE,16,1.0,7.0,86,0.00,,---,0.00,VWS V14.01,2013-02-08 14:22:00,
2013-02-08 09:25:00,23.1,19.5,30.26,NE,42,3.0,7.0,86,0.00,,---,0.00,VWS V14.01,2013-02-08 14:25:00,
2013-02-08 09:27:00,23.0,19.5,30.26,NE,45,2.0,6.0,86,0.00,,---,0.00,VWS V14.01,2013-02-08 14:27:00,
2013-02-08 09:30:00,23.0,19.4,30.26,NNE,13,2.0,6.0,86,0.00,,---,0.00,VWS V14.01,2013-02-08 14:30:00,
2013-02-08 09:33:00,23.0,19.5,30.26,NE,37,1.0,5.0,86,0.00,,---,0.00,VWS V14.01,2013-02-08 14:33:00,
2013-02-08 09:35:00,23.0,19.4,30.26,NE,37,2.0,5.0,86,0.00,,---,0.00,VWS V14.01,2013-02-08 14:35:00,
2013-02-08 09:38:00,23.0,19.5,30.26,NNE,22,3.0,7.0,86,0.00,,---,0.00,VWS V14.01,2013-02-08 14:38:00,
2013-02-08 09:40:00,23.0,19.4,30.26,NNE,22,0.0,7.0,86,0.00,,---,0.00,VWS V14.01,2013-02-08 14:40:00,
2013-02-08 09:43:00,23.1,19.5,30.26,NNE,32,0.0,3.0,86,0.00,,---,0.00,VWS V14.01,2013-02-08 14:43:00,
2013-02-08 09:45:00,23.1,19.5,30.26,NNE,32,0.0,3.0,86,0.00,,---,0.00,VWS V14.01,2013-02-08 14:45:00,
2013-02-08 09:48:00,23.1,19.5,30.26,NE,39,1.0,5.0,86,0.00,,---,0.00,VWS V14.01,2013-02-08 14:48:00,
2013-02-08 09:50:00,23.1,19.5,30.26,NE,39,0.0,5.0,86,0.00,,---,0.00,VWS V14.01,2013-02-08 14:50:00,
2013-02-08 09:53:00,23.1,19.5,30.26,NNE,17,2.0,4.0,86,0.00,,---,0.00,VWS V14.01,2013-02-08 14:53:00,
2013-02-08 09:55:00,23.1,19.5,30.26,NNE,17,2.0,4.0,86,0.00,,---,0.00,VWS V14.01,2013-02-08 14:55:00,
2013-02-08 09:58:00,23.0,19.2,30.25,NNE,16,1.0,3.0,85,0.00,,---,0.00,VWS V14.01,2013-02-08 14:58:00,
2013-02-08 10:00:00,23.0,19.2,30.25,NNE,16,1.0,3.0,85,0.00,,---,0.00,VWS V14.01,2013-02-08 15:00:00,
2013-02-08 10:03:00,22.9,19.1,30.25,East,84,1.0,6.0,85,0.00,,---,0.00,VWS V14.01,2013-02-08 15:03:00,
2013-02-08 10:05:00,22.9,19.1,30.25,East,84,1.0,6.0,85,0.00,,---,0.00,VWS V14.01,2013-02-08 15:05:00,
2013-02-08 10:08:00,22.9,19.1,30.25,NE,46,0.0,6.0,85,0.00,,---,0.00,VWS V14.01,2013-02-08 15:08:00,
2013-02-08 10:10:00,22.9,19.1,30.25,NE,46,0.0,6.0,85,0.00,,---,0.00,VWS V14.01,2013-02-08 15:10:00,
2013-02-08 10:13:00,22.9,19.1,30.25,NE,40,2.0,3.0,85,0.00,,---,0.00,VWS V14.01,2013-02-08 15:13:00,
2013-02-08 10:15:00,22.9,19.1,30.25,NE,40,2.0,3.0,85,0.00,,---,0.00,VWS V14.01,2013-02-08 15:15:00,
2013-02-08 10:18:00,22.9,19.1,30.25,NE,48,4.0,6.0,85,0.00,,---,0.00,VWS V14.01,2013-02-08 15:18:00,
2013-02-08 10:20:00,22.9,19.1,30.25,NE,48,4.0,6.0,85,0.00,,---,0.00,VWS V14.01,2013-02-08 15:20:00,
2013-02-08 10:23:00,22.8,19.0,30.25,NNE,14,2.0,4.0,85,0.00,,---,0.00,VWS V14.01,2013-02-08 15:23:00,
2013-02-08 10:25:00,22.8,19.0,30.25,NNE,14,2.0,4.0,85,0.00,,---,0.00,VWS V14.01,2013-02-08 15:25:00,
2013-02-08 10:28:00,22.8,19.2,30.24,ENE,57,0.0,7.0,86,0.00,,---,0.00,VWS V14.01,2013-02-08 15:28:00,
2013-02-08 10:30:00,22.8,19.2,30.24,ENE,57,0.0,7.0,86,0.00,,---,0.00,VWS V14.01,2013-02-08 15:30:00,
2013-02-08 10:33:00,23.0,19.5,30.25,ENE,74,5.0,5.0,86,0.00,,---,0.00,VWS V14.01,2013-02-08 15:33:00,
2013-02-08 10:35:00,23.0,19.4,30.25,ENE,74,5.0,5.0,86,0.00,,---,0.00,VWS V14.01,2013-02-08 15:35:00,
2013-02-08 10:38:00,23.1,19.5,30.24,NNE,31,1.0,5.0,86,0.00,,---,0.00,VWS V14.01,2013-02-08 15:38:00,
2013-02-08 10:40:00,23.1,19.5,30.24,NNE,31,1.0,5.0,86,0.00,,---,0.00,VWS V14.01,2013-02-08 15:40:00,
2013-02-08 10:43:00,23.3,19.7,30.24,ENE,57,0.0,4.0,86,0.00,,---,0.00,VWS V14.01,2013-02-08 15:43:00,
2013-02-08 10:45:00,23.3,19.7,30.24,ENE,57,0.0,4.0,86,0.00,,---,0.00,VWS V14.01,2013-02-08 15:45:00,
2013-02-08 10:48:00,23.3,19.7,30.24,NNW,348,3.0,6.0,86,0.00,,---,0.00,VWS V14.01,2013-02-08 15:48:00,
2013-02-08 10:50:00,23.3,19.7,30.24,NNW,348,3.0,6.0,86,0.00,,---,0.00,VWS V14.01,2013-02-08 15:50:00,
2013-02-08 10:53:00,23.3,19.7,30.24,NNE,13,3.0,4.0,86,0.00,,---,0.00,VWS V14.01,2013-02-08 15:53:00,
2013-02-08 10:55:00,23.3,19.7,30.24,NNE,13,3.0,4.0,86,0.00,,---,0.00,VWS V14.01,2013-02-08 15:55:00,
2013-02-08 10:58:00,23.2,19.6,30.23,NNW,348,2.0,2.0,86,0.00,,---,0.00,VWS V14.01,2013-02-08 15:58:00,
2013-02-08 11:00:00,23.2,19.6,30.23,North,350,1.0,6.0,86,0.00,,---,0.00,VWS V14.01,2013-02-08 16:00:00,
2013-02-08 11:04:00,23.1,19.5,30.22,NE,43,7.0,7.0,86,0.00,,---,0.00,VWS V14.01,2013-02-08 16:04:00,
2013-02-08 11:05:00,23.1,19.5,30.22,ENE,69,1.0,6.0,86,0.00,,---,0.00,VWS V14.01,2013-02-08 16:05:00,
2013-02-08 11:09:00,23.0,19.5,30.22,ENE,61,3.0,3.0,86,0.00,,---,0.00,VWS V14.01,2013-02-08 16:09:00,
2013-02-08 11:10:00,23.0,19.4,30.22,NNE,31,1.0,12.0,86,0.00,,---,0.00,VWS V14.01,2013-02-08 16:10:00,
2013-02-08 11:14:00,23.0,19.7,30.21,NE,40,3.0,3.0,87,0.00,,---,0.00,VWS V14.01,2013-02-08 16:14:00,
2013-02-08 11:15:00,23.0,19.7,30.21,NE,40,1.0,5.0,87,0.00,,---,0.00,VWS V14.01,2013-02-08 16:15:00,
2013-02-08 11:19:00,23.2,20.2,30.21,ENE,57,0.0,1.0,88,0.00,,---,0.00,VWS V14.01,2013-02-08 16:19:00,
2013-02-08 11:20:00,23.2,20.2,30.21,ENE,57,1.0,7.0,88,0.00,,---,0.00,VWS V14.01,2013-02-08 16:20:00,
2013-02-08 11:24:00,23.4,20.4,30.20,NNE,15,3.0,3.0,88,0.00,,---,0.00,VWS V14.01,2013-02-08 16:24:00,
2013-02-08 11:25:00,23.4,20.4,30.21,NNE,26,0.0,3.0,88,0.00,,---,0.00,VWS V14.01,2013-02-08 16:25:00,
2013-02-08 11:29:00,23.5,20.5,30.20,North,360,2.0,9.0,88,0.00,,---,0.00,VWS V14.01,2013-02-08 16:29:00,
2013-02-08 11:30:00,23.5,20.5,30.20,NNE,14,1.0,6.0,88,0.00,,---,0.00,VWS V14.01,2013-02-08 16:30:00,
2013-02-08 11:34:00,23.4,20.1,30.20,North,11,4.0,10.0,87,0.00,,---,0.00,VWS V14.01,2013-02-08 16:34:00,
2013-02-08 11:35:00,23.5,20.5,30.20,North,9,3.0,9.0,88,0.00,,---,0.00,VWS V14.01,2013-02-08 16:35:00,
2013-02-08 11:39:00,23.3,20.3,30.19,NNE,24,2.0,7.0,88,0.00,,---,0.00,VWS V14.01,2013-02-08 16:39:00,
2013-02-08 11:40:00,23.3,20.0,30.19,NE,49,2.0,13.0,87,0.00,,---,0.00,VWS V14.01,2013-02-08 16:40:00,
2013-02-08 11:45:00,23.4,20.4,30.19,NE,36,3.0,11.0,88,0.00,,---,0.00,VWS V14.01,2013-02-08 16:45:00,
2013-02-08 11:50:00,23.5,20.5,30.18,NE,39,3.0,9.0,88,0.00,,---,0.00,VWS V14.01,2013-02-08 16:50:00,
2013-02-08 11:55:00,23.8,20.8,30.17,NNE,23,4.0,7.0,88,0.00,,---,0.00,VWS V14.01,2013-02-08 16:55:00,
2013-02-08 12:00:00,23.8,20.8,30.17,NE,37,2.0,7.0,88,0.00,,---,0.00,VWS V14.01,2013-02-08 17:00:00,
2013-02-08 12:05:00,23.7,20.4,30.16,NE,54,2.0,7.0,87,0.00,,---,0.00,VWS V14.01,2013-02-08 17:05:00,
2013-02-08 12:10:00,23.8,20.8,30.16,NNE,29,4.0,4.0,88,0.00,,---,0.00,VWS V14.01,2013-02-08 17:10:00,
2013-02-08 12:15:00,23.8,20.8,30.16,NNE,24,4.0,5.0,88,0.00,,---,0.00,VWS V14.01,2013-02-08 17:15:00,
2013-02-08 12:16:00,23.8,20.8,30.15,NE,47,1.0,9.0,88,0.00,,---,0.00,VWS V14.01,2013-02-08 17:16:00,
2013-02-08 12:20:00,23.7,20.4,30.15,NE,55,6.0,9.0,87,0.00,,---,0.00,VWS V14.01,2013-02-08 17:20:00,
2013-02-08 12:21:00,23.5,20.2,30.15,NE,35,3.0,10.0,87,0.00,,---,0.00,VWS V14.01,2013-02-08 17:21:00,
2013-02-08 12:25:00,23.3,19.7,30.15,North,5,2.0,10.0,86,0.00,,---,0.00,VWS V14.01,2013-02-08 17:25:00,
2013-02-08 12:26:00,23.2,19.9,30.14,NE,37,6.0,7.0,87,0.00,,---,0.00,VWS V14.01,2013-02-08 17:26:00,
2013-02-08 12:30:00,23.1,19.8,30.14,North,355,4.0,9.0,87,0.00,,---,0.00,VWS V14.01,2013-02-08 17:30:00,
2013-02-08 12:31:00,22.9,19.6,30.14,NE,46,9.0,9.0,87,0.00,,---,0.00,VWS V14.01,2013-02-08 17:31:00,
2013-02-08 12:35:00,22.7,19.4,30.14,ENE,59,4.0,10.0,87,0.00,,---,0.00,VWS V14.01,2013-02-08 17:35:00,
2013-02-08 12:36:00,22.7,19.7,30.14,NNE,32,2.0,7.0,88,0.00,,---,0.00,VWS V14.01,2013-02-08 17:36:00,
2013-02-08 12:40:00,22.7,19.7,30.14,SSE,167,3.0,7.0,88,0.00,,---,0.00,VWS V14.01,2013-02-08 17:40:00,
2013-02-08 12:41:00,22.7,19.7,30.14,NE,42,4.0,7.0,88,0.00,,---,0.00,VWS V14.01,2013-02-08 17:41:00,
2013-02-08 12:45:00,22.7,20.0,30.14,North,355,4.0,7.0,89,0.00,,---,0.00,VWS V14.01,2013-02-08 17:45:00,
2013-02-08 12:46:00,22.7,20.0,30.14,North,9,6.0,10.0,89,0.00,,---,0.00,VWS V14.01,2013-02-08 17:46:00,
2013-02-08 12:50:00,22.7,20.0,30.13,NNE,23,2.0,10.0,89,0.00,,---,0.00,VWS V14.01,2013-02-08 17:50:00,
2013-02-08 12:51:00,22.6,19.9,30.13,NNE,17,4.0,5.0,89,0.00,,---,0.00,VWS V14.01,2013-02-08 17:51:00,
2013-02-08 12:55:00,22.6,19.9,30.13,North,5,2.0,5.0,89,0.00,,---,0.00,VWS V14.01,2013-02-08 17:55:00,
2013-02-08 12:56:00,22.5,19.8,30.12,NNE,30,3.0,6.0,89,0.00,,---,0.00,VWS V14.01,2013-02-08 17:56:00,
2013-02-08 13:00:00,22.5,19.8,30.12,North,355,6.0,6.0,89,0.00,,---,0.00,VWS V14.01,2013-02-08 18:00:00,
2013-02-08 13:02:00,22.5,19.8,30.12,NNE,13,2.0,7.0,89,0.00,,---,0.00,VWS V14.01,2013-02-08 18:02:00,
2013-02-08 13:05:00,22.5,19.8,30.12,NNE,32,6.0,7.0,89,0.00,,---,0.00,VWS V14.01,2013-02-08 18:05:00,
2013-02-08 13:07:00,22.4,19.7,30.12,NE,47,4.0,10.0,89,0.00,,---,0.00,VWS V14.01,2013-02-08 18:07:00,
2013-02-08 13:10:00,22.3,19.6,30.12,North,355,3.0,10.0,89,0.00,,---,0.00,VWS V14.01,2013-02-08 18:10:00,
2013-02-08 13:12:00,22.1,19.4,30.11,NE,38,4.0,13.0,89,0.00,,---,0.00,VWS V14.01,2013-02-08 18:12:00,
2013-02-08 13:15:00,22.1,19.4,30.11,ENE,61,3.0,13.0,89,0.00,,---,0.00,VWS V14.01,2013-02-08 18:15:00,
2013-02-08 13:17:00,22.0,19.5,30.11,NE,46,4.0,10.0,90,0.00,,---,0.00,VWS V14.01,2013-02-08 18:17:00,
2013-02-08 13:20:00,22.0,19.5,30.11,NE,37,4.0,12.0,90,0.00,,---,0.00,VWS V14.01,2013-02-08 18:20:00,
2013-02-08 13:22:00,22.0,19.5,30.11,NE,53,4.0,8.0,90,0.00,,---,0.00,VWS V14.01,2013-02-08 18:22:00,
2013-02-08 13:25:00,21.9,19.4,30.11,NE,39,4.0,8.0,90,0.00,,---,0.00,VWS V14.01,2013-02-08 18:25:00,
2013-02-08 13:28:00,21.9,19.4,30.10,NNW,332,3.0,5.0,90,0.00,,---,0.00,VWS V14.01,2013-02-08 18:28:00,
2013-02-08 13:30:00,21.9,19.4,30.10,North,355,2.0,5.0,90,0.00,,---,0.00,VWS V14.01,2013-02-08 18:30:00,
2013-02-08 13:33:00,21.9,19.4,30.10,NNE,27,2.0,4.0,90,0.00,,---,0.00,VWS V14.01,2013-02-08 18:33:00,
2013-02-08 13:35:00,21.9,19.4,30.10,NNE,27,2.0,4.0,90,0.00,,---,0.00,VWS V14.01,2013-02-08 18:35:00,
2013-02-08 13:38:00,21.7,19.2,30.10,NNE,16,4.0,6.0,90,0.00,,---,0.00,VWS V14.01,2013-02-08 18:38:00,
2013-02-08 13:40:00,20.9,18.7,30.05,NE,55,2.0,10.0,91,0.00,,---,0.00,VWS V14.01,2013-02-08 18:40:00,
2013-02-08 13:43:00,21.6,19.1,30.09,NNE,19,4.0,4.0,90,0.00,,---,0.00,VWS V14.01,2013-02-08 18:43:00,
2013-02-08 13:45:00,21.5,19.0,30.09,NE,46,1.0,8.0,90,0.00,,---,0.00,VWS V14.01,2013-02-08 18:45:00,
2013-02-08 13:49:00,21.5,19.0,30.09,North,9,4.0,7.0,90,0.00,,---,0.00,VWS V14.01,2013-02-08 18:49:00,
2013-02-08 13:50:00,21.5,19.0,30.09,NNE,22,1.0,11.0,90,0.00,,---,0.00,VWS V14.01,2013-02-08 18:50:00,
2013-02-08 13:54:00,21.6,19.1,30.09,NE,45,4.0,4.0,90,0.00,,---,0.00,VWS V14.01,2013-02-08 18:54:00,
2013-02-08 13:55:00,21.6,19.1,30.09,NE,36,2.0,7.0,90,0.00,,---,0.00,VWS V14.01,2013-02-08 18:55:00,
2013-02-08 13:59:00,21.5,19.0,30.08,NNE,22,2.0,4.0,90,0.00,,---,0.00,VWS V14.01,2013-02-08 18:59:00,
2013-02-08 14:00:00,21.5,19.0,30.09,NE,36,0.0,6.0,90,0.00,,---,0.00,VWS V14.01,2013-02-08 19:00:00,
2013-02-08 14:04:00,21.5,19.0,30.08,NNE,22,3.0,4.0,90,0.00,,---,0.00,VWS V14.01,2013-02-08 19:04:00,
2013-02-08 14:05:00,21.5,19.0,30.08,NNE,32,3.0,6.0,90,0.00,,---,0.00,VWS V14.01,2013-02-08 19:05:00,
2013-02-08 14:09:00,21.4,18.9,30.08,NNE,15,3.0,5.0,90,0.00,,---,0.00,VWS V14.01,2013-02-08 19:09:00,
2013-02-08 14:10:00,21.4,18.9,30.07,NNE,22,3.0,4.0,90,0.00,,---,0.00,VWS V14.01,2013-02-08 19:10:00,
2013-02-08 14:14:00,21.3,18.8,30.07,NNE,32,2.0,3.0,90,0.00,,---,0.00,VWS V14.01,2013-02-08 19:14:00,
2013-02-08 14:15:00,21.3,18.8,30.08,NNE,27,1.0,5.0,90,0.00,,---,0.00,VWS V14.01,2013-02-08 19:15:00,
2013-02-08 14:19:00,21.1,18.6,30.07,NE,36,2.0,6.0,90,0.00,,---,0.00,VWS V14.01,2013-02-08 19:19:00,
2013-02-08 14:20:00,21.2,18.7,30.07,NNE,20,6.0,6.0,90,0.00,,---,0.00,VWS V14.01,2013-02-08 19:20:00,
2013-02-08 14:24:00,20.9,18.4,30.06,NNW,337,4.0,8.0,90,0.00,,---,0.00,VWS V14.01,2013-02-08 19:24:00,
2013-02-08 14:25:00,21.0,18.5,30.06,NE,36,5.0,9.0,90,0.00,,---,0.00,VWS V14.01,2013-02-08 19:25:00,
2013-02-08 14:30:00,20.9,18.7,30.06,North,360,1.0,4.0,91,0.00,,---,0.00,VWS V14.01,2013-02-08 19:30:00,
2013-02-08 14:35:00,20.9,18.7,30.05,NE,49,1.0,3.0,91,0.00,,---,0.00,VWS V14.01,2013-02-08 19:35:00,
2013-02-08 14:40:00,21.0,18.8,30.05,NE,38,2.0,3.0,91,0.00,,---,0.00,VWS V14.01,2013-02-08 19:40:00,
2013-02-08 14:45:00,21.0,18.8,30.05,ENE,63,3.0,3.0,91,0.00,,---,0.00,VWS V14.01,2013-02-08 19:45:00,
2013-02-08 14:50:00,21.0,18.8,30.04,North,360,2.0,3.0,91,0.00,,---,0.00,VWS V14.01,2013-02-08 19:50:00,
2013-02-08 14:55:00,21.1,18.9,30.04,NE,46,2.0,4.0,91,0.00,,---,0.00,VWS V14.01,2013-02-08 19:55:00,
2013-02-08 15:00:00,21.1,18.9,30.04,NE,48,4.0,6.0,91,0.00,,---,0.00,VWS V14.01,2013-02-08 20:00:00,
2013-02-08 15:05:00,21.1,18.9,30.04,North,355,3.0,5.0,91,0.00,,---,0.00,VWS V14.01,2013-02-08 20:05:00,
2013-02-08 15:10:00,21.2,19.0,30.03,North,350,0.0,4.0,91,0.00,,---,0.00,VWS V14.01,2013-02-08 20:10:00,
2013-02-08 15:15:00,21.3,19.3,30.03,NNE,29,0.0,7.0,92,0.00,,---,0.00,VWS V14.01,2013-02-08 20:15:00,
2013-02-08 15:20:00,21.4,19.4,30.03,NNE,13,3.0,7.0,92,0.00,,---,0.00,VWS V14.01,2013-02-08 20:20:00,
2013-02-08 15:21:00,21.4,19.4,30.03,NNE,15,0.0,3.0,92,0.00,,---,0.00,VWS V14.01,2013-02-08 20:21:00,
2013-02-08 15:25:00,21.5,19.5,30.02,NNE,27,1.0,3.0,92,0.00,,---,0.00,VWS V14.01,2013-02-08 20:25:00,
2013-02-08 15:26:00,21.6,19.6,30.02,NNE,31,2.0,6.0,92,0.00,,---,0.00,VWS V14.01,2013-02-08 20:26:00,
2013-02-08 15:30:00,21.6,19.6,30.02,North,5,1.0,6.0,92,0.00,,---,0.00,VWS V14.01,2013-02-08 20:30:00,
2013-02-08 15:31:00,21.7,19.7,30.01,NE,39,0.0,6.0,92,0.00,,---,0.00,VWS V14.01,2013-02-08 20:31:00,
2013-02-08 15:35:00,21.7,19.7,30.01,NNE,28,0.0,6.0,92,0.00,,---,0.00,VWS V14.01,2013-02-08 20:35:00,
2013-02-08 15:36:00,21.7,19.7,30.01,NNW,341,0.0,4.0,92,0.00,,---,0.00,VWS V14.01,2013-02-08 20:36:00,
2013-02-08 15:40:00,21.7,19.7,30.01,NE,38,5.0,5.0,92,0.00,,---,0.00,VWS V14.01,2013-02-08 20:40:00,
2013-02-08 15:41:00,21.7,19.7,30.00,NE,36,4.0,6.0,92,0.00,,---,0.00,VWS V14.01,2013-02-08 20:41:00,
2013-02-08 15:45:00,21.7,19.7,30.00,NE,55,0.0,6.0,92,0.00,,---,0.00,VWS V14.01,2013-02-08 20:45:00,
2013-02-08 15:46:00,21.7,19.7,30.00,NNE,13,2.0,6.0,92,0.00,,---,0.00,VWS V14.01,2013-02-08 20:46:00,
2013-02-08 15:50:00,21.7,19.7,30.00,NNW,346,1.0,6.0,92,0.00,,---,0.00,VWS V14.01,2013-02-08 20:50:00,
2013-02-08 15:51:00,21.6,19.6,30.00,NNW,346,0.0,4.0,92,0.00,,---,0.00,VWS V14.01,2013-02-08 20:51:00,
2013-02-08 15:55:00,21.6,19.6,29.99,NNE,30,2.0,4.0,92,0.00,,---,0.00,VWS V14.01,2013-02-08 20:55:00,
2013-02-08 15:56:00,21.7,19.7,29.99,NE,41,1.0,3.0,92,0.00,,---,0.00,VWS V14.01,2013-02-08 20:56:00,
2013-02-08 16:00:00,21.7,19.7,29.99,NW,313,2.0,5.0,92,0.00,,---,0.00,VWS V14.01,2013-02-08 21:00:00,
2013-02-08 16:02:00,21.7,19.7,29.98,NNE,19,2.0,6.0,92,0.00,,---,0.00,VWS V14.01,2013-02-08 21:02:00,
2013-02-08 16:05:00,21.7,19.7,29.98,North,5,2.0,6.0,92,0.00,,---,0.00,VWS V14.01,2013-02-08 21:05:00,
2013-02-08 16:07:00,21.7,19.7,29.97,NNW,347,0.0,4.0,92,0.00,,---,0.00,VWS V14.01,2013-02-08 21:07:00,
2013-02-08 16:10:00,21.7,19.7,29.97,NE,50,1.0,4.0,92,0.00,,---,0.00,VWS V14.01,2013-02-08 21:10:00,
2013-02-08 16:12:00,21.8,19.8,29.97,NNE,13,2.0,5.0,92,0.00,,---,0.00,VWS V14.01,2013-02-08 21:12:00,
2013-02-08 16:15:00,21.8,19.8,29.97,NNW,345,3.0,5.0,92,0.00,,---,0.00,VWS V14.01,2013-02-08 21:15:00,
2013-02-08 16:17:00,21.8,19.8,29.96,NNE,24,3.0,4.0,92,0.00,,---,0.00,VWS V14.01,2013-02-08 21:17:00,
2013-02-08 16:20:00,21.8,19.8,29.96,North,360,4.0,4.0,92,0.00,,---,0.00,VWS V14.01,2013-02-08 21:20:00,
2013-02-08 16:22:00,21.9,19.9,29.96,NE,44,1.0,5.0,92,0.00,,---,0.00,VWS V14.01,2013-02-08 21:22:00,
2013-02-08 16:25:00,22.0,20.0,29.96,NNW,346,5.0,5.0,92,0.00,,---,0.00,VWS V14.01,2013-02-08 21:25:00,
2013-02-08 16:27:00,22.0,20.0,29.96,NE,51,2.0,7.0,92,0.00,,---,0.00,VWS V14.01,2013-02-08 21:27:00,
2013-02-08 16:30:00,22.1,20.1,29.96,NE,39,1.0,7.0,92,0.00,,---,0.00,VWS V14.01,2013-02-08 21:30:00,
2013-02-08 16:32:00,22.1,20.1,29.95,NE,43,2.0,6.0,92,0.00,,---,0.00,VWS V14.01,2013-02-08 21:32:00,
2013-02-08 16:35:00,22.1,20.1,29.95,NE,42,2.0,6.0,92,0.00,,---,0.00,VWS V14.01,2013-02-08 21:35:00,
2013-02-08 16:37:00,22.1,20.1,29.95,NNW,335,0.0,2.0,92,0.00,,---,0.00,VWS V14.01,2013-02-08 21:37:00,
2013-02-08 16:40:00,22.1,20.1,29.95,NNW,335,0.0,2.0,92,0.00,,---,0.00,VWS V14.01,2013-02-08 21:40:00,
2013-02-08 16:42:00,22.1,20.1,29.94,North,360,2.0,5.0,92,0.00,,---,0.00,VWS V14.01,2013-02-08 21:42:00,
2013-02-08 16:45:00,22.1,20.1,29.94,NNE,12,5.0,5.0,92,0.00,,---,0.00,VWS V14.01,2013-02-08 21:45:00,
2013-02-08 16:47:00,22.1,20.1,29.94,NNW,336,2.0,5.0,92,0.00,,---,0.00,VWS V14.01,2013-02-08 21:47:00,
2013-02-08 16:50:00,22.1,20.1,29.94,NNW,336,0.0,5.0,92,0.00,,---,0.00,VWS V14.01,2013-02-08 21:50:00,
2013-02-08 16:53:00,22.1,20.1,29.93,North,349,0.0,5.0,92,0.00,,---,0.00,VWS V14.01,2013-02-08 21:53:00,
2013-02-08 16:55:00,22.1,20.1,29.93,North,349,0.0,5.0,92,0.00,,---,0.00,VWS V14.01,2013-02-08 21:55:00,
2013-02-08 16:58:00,22.1,20.1,29.93,NE,38,2.0,6.0,92,0.00,,---,0.00,VWS V14.01,2013-02-08 21:58:00,
2013-02-08 17:00:00,22.1,20.1,29.93,NE,38,0.0,6.0,92,0.00,,---,0.00,VWS V14.01,2013-02-08 22:00:00,
2013-02-08 17:03:00,22.1,20.1,29.92,NE,46,0.0,3.0,92,0.00,,---,0.00,VWS V14.01,2013-02-08 22:03:00,
2013-02-08 17:05:00,22.1,20.1,29.92,NNE,17,2.0,3.0,92,0.00,,---,0.00,VWS V14.01,2013-02-08 22:05:00,
2013-02-08 17:08:00,22.2,20.5,29.92,NNW,331,0.0,6.0,93,0.00,,---,0.00,VWS V14.01,2013-02-08 22:08:00,
2013-02-08 17:10:00,22.1,20.4,29.92,North,355,2.0,6.0,93,0.00,,---,0.00,VWS V14.01,2013-02-08 22:10:00,
2013-02-08 17:13:00,22.2,20.5,29.91,North,10,3.0,7.0,93,0.00,,---,0.00,VWS V14.01,2013-02-08 22:13:00,
2013-02-08 17:15:00,22.2,20.5,29.91,North,355,4.0,7.0,93,0.00,,---,0.00,VWS V14.01,2013-02-08 22:15:00,
2013-02-08 17:18:00,22.2,20.2,29.91,NE,37,4.0,6.0,92,0.00,,---,0.00,VWS V14.01,2013-02-08 22:18:00,
2013-02-08 17:20:00,22.2,20.2,29.91,NE,37,4.0,6.0,92,0.00,,---,0.00,VWS V14.01,2013-02-08 22:20:00,
2013-02-08 17:23:00,22.2,20.5,29.91,NNE,24,1.0,4.0,93,0.00,,---,0.00,VWS V14.01,2013-02-08 22:23:00,
2013-02-08 17:25:00,22.2,20.5,29.91,NNE,24,1.0,4.0,93,0.00,,---,0.00,VWS V14.01,2013-02-08 22:25:00,
2013-02-08 17:28:00,22.2,20.5,29.90,North,5,0.0,5.0,93,0.00,,---,0.00,VWS V14.01,2013-02-08 22:28:00,
2013-02-08 17:30:00,22.2,20.5,29.90,North,5,0.0,5.0,93,0.00,,---,0.00,VWS V14.01,2013-02-08 22:30:00,
2013-02-08 17:33:00,22.2,20.5,29.90,NNE,14,5.0,5.0,93,0.00,,---,0.00,VWS V14.01,2013-02-08 22:33:00,
2013-02-08 17:35:00,22.2,20.5,29.90,NNW,336,1.0,7.0,93,0.00,,---,0.00,VWS V14.01,2013-02-08 22:35:00,
2013-02-08 17:38:00,22.1,20.1,29.90,NNE,12,3.0,3.0,92,0.00,,---,0.00,VWS V14.01,2013-02-08 22:38:00,
2013-02-08 17:40:00,22.1,20.1,29.90,North,10,2.0,7.0,92,0.00,,---,0.00,VWS V14.01,2013-02-08 22:40:00,
2013-02-08 17:43:00,22.1,20.1,29.90,North,360,3.0,4.0,92,0.00,,---,0.00,VWS V14.01,2013-02-08 22:43:00,
2013-02-08 17:45:00,22.1,20.1,29.90,NNE,17,3.0,6.0,92,0.00,,---,0.00,VWS V14.01,2013-02-08 22:45:00,
2013-02-08 17:49:00,22.0,20.3,29.90,NNE,33,3.0,3.0,93,0.00,,---,0.00,VWS V14.01,2013-02-08 22:49:00,
2013-02-08 17:50:00,22.0,20.3,29.90,NW,319,2.0,5.0,93,0.00,,---,0.00,VWS V14.01,2013-02-08 22:50:00,
2013-02-08 17:54:00,22.0,20.3,29.90,NNW,338,3.0,3.0,93,0.00,,---,0.00,VWS V14.01,2013-02-08 22:54:00,
2013-02-08 17:55:00,22.0,20.3,29.90,NNW,347,1.0,7.0,93,0.00,,---,0.00,VWS V14.01,2013-02-08 22:55:00,
2013-02-08 17:59:00,22.0,20.3,29.90,North,360,4.0,4.0,93,0.00,,---,0.00,VWS V14.01,2013-02-08 22:59:00,
2013-02-08 18:00:00,22.0,20.3,29.90,NNE,19,4.0,7.0,93,0.00,,---,0.00,VWS V14.01,2013-02-08 23:00:00,
2013-02-08 18:04:00,21.9,19.9,29.90,NW,313,1.0,4.0,92,0.00,,---,0.00,VWS V14.01,2013-02-08 23:04:00,
2013-02-08 18:05:00,21.9,19.9,29.90,NW,323,4.0,10.0,92,0.00,,---,0.00,VWS V14.01,2013-02-08 23:05:00,
2013-02-08 18:09:00,21.8,19.8,29.89,North,355,0.0,4.0,92,0.00,,---,0.00,VWS V14.01,2013-02-08 23:09:00,
2013-02-08 18:10:00,21.8,19.8,29.89,North,5,3.0,7.0,92,0.00,,---,0.00,VWS V14.01,2013-02-08 23:10:00,
2013-02-08 18:14:00,21.8,19.8,29.89,NNE,22,2.0,4.0,92,0.00,,---,0.00,VWS V14.01,2013-02-08 23:14:00,
2013-02-08 18:15:00,21.8,19.8,29.89,NNW,343,1.0,10.0,92,0.00,,---,0.00,VWS V14.01,2013-02-08 23:15:00,
2013-02-08 18:19:00,21.7,19.7,29.89,North,355,1.0,5.0,92,0.00,,---,0.00,VWS V14.01,2013-02-08 23:19:00,
2013-02-08 18:20:00,21.7,19.7,29.89,North,9,3.0,7.0,92,0.00,,---,0.00,VWS V14.01,2013-02-08 23:20:00,
2013-02-08 18:24:00,21.6,19.6,29.89,NE,47,6.0,10.0,92,0.00,,---,0.00,VWS V14.01,2013-02-08 23:24:00,
2013-02-08 18:25:00,20.6,18.6,29.83,NE,42,10.0,17.0,92,0.00,,---,0.00,VWS V14.01,2013-02-08 23:25:00,
2013-02-08 18:29:00,21.4,19.4,29.89,North,350,4.0,6.0,92,0.00,,---,0.00,VWS V14.01,2013-02-08 23:29:00,
2013-02-08 18:30:00,21.5,19.5,29.89,North,9,1.0,11.0,92,0.00,,---,0.00,VWS V14.01,2013-02-08 23:30:00,
2013-02-08 18:34:00,21.3,19.3,29.88,North,349,3.0,3.0,92,0.00,,---,0.00,VWS V14.01,2013-02-08 23:34:00,
2013-02-08 18:35:00,21.4,19.4,29.89,NNE,15,3.0,7.0,92,0.00,,---,0.00,VWS V14.01,2013-02-08 23:35:00,
2013-02-08 18:39:00,21.2,19.2,29.88,NNW,337,1.0,7.0,92,0.00,,---,0.00,VWS V14.01,2013-02-08 23:39:00,
2013-02-08 18:40:00,21.2,19.2,29.88,NNE,20,0.0,9.0,92,0.00,,---,0.00,VWS V14.01,2013-02-08 23:40:00,
2013-02-08 18:44:00,21.0,19.0,29.87,NNE,27,3.0,4.0,92,0.00,,---,0.00,VWS V14.01,2013-02-08 23:44:00,
2013-02-08 18:45:00,21.1,19.1,29.88,North,5,2.0,11.0,92,0.00,,---,0.00,VWS V14.01,2013-02-08 23:45:00,
2013-02-08 18:49:00,20.8,18.9,29.87,NNE,26,6.0,9.0,92,0.00,,---,0.00,VWS V14.01,2013-02-08 23:49:00,
2013-02-08 18:50:00,20.9,19.0,29.87,NW,307,2.0,8.0,92,0.00,,---,0.00,VWS V14.01,2013-02-08 23:50:00,
2013-02-08 18:55:00,20.8,18.9,29.86,North,11,7.0,12.0,92,0.00,,---,0.00,VWS V14.01,2013-02-08 23:55:00,
2013-02-08 19:00:00,20.7,18.8,29.86,North,9,6.0,8.0,92,0.00,,---,0.00,VWS V14.01,2013-02-09 00:00:00,
2013-02-08 19:05:00,20.7,18.8,29.85,North,5,4.0,12.0,92,0.00,,---,0.00,VWS V14.01,2013-02-09 00:05:00,
2013-02-08 19:10:00,20.7,18.8,29.84,NNE,32,10.0,16.0,92,0.00,,---,0.00,VWS V14.01,2013-02-09 00:10:00,
2013-02-08 19:15:00,20.6,18.6,29.84,NE,38,3.0,7.0,92,0.00,,---,0.00,VWS V14.01,2013-02-09 00:15:00,
2013-02-08 19:20:00,20.6,18.6,29.83,NE,39,17.0,17.0,92,0.00,,---,0.00,VWS V14.01,2013-02-09 00:20:00,
2013-02-08 19:25:00,20.6,18.6,29.82,East,81,4.0,13.0,92,0.00,,---,0.00,VWS V14.01,2013-02-09 00:25:00,
2013-02-08 19:30:00,20.6,18.6,29.83,NNW,333,4.0,10.0,92,0.00,,---,0.00,VWS V14.01,2013-02-09 00:30:00,
2013-02-08 19:35:00,20.5,18.5,29.82,NNE,12,7.0,11.0,92,0.00,,---,0.00,VWS V14.01,2013-02-09 00:35:00,
2013-02-08 19:40:00,20.5,18.8,29.82,North,5,3.0,7.0,93,0.00,,---,0.00,VWS V14.01,2013-02-09 00:40:00,
2013-02-08 19:45:00,20.4,18.7,29.81,North,360,4.0,12.0,93,0.00,,---,0.00,VWS V14.01,2013-02-09 00:45:00,
2013-02-08 19:50:00,20.4,18.7,29.81,NNW,336,2.0,11.0,93,0.00,,---,0.00,VWS V14.01,2013-02-09 00:50:00,
2013-02-08 19:55:00,20.4,18.7,29.81,NNE,17,5.0,15.0,93,0.00,,---,0.00,VWS V14.01,2013-02-09 00:55:00,
2013-02-08 19:56:00,20.3,18.6,29.81,NNE,32,7.0,20.0,93,0.00,,---,0.00,VWS V14.01,2013-02-09 00:56:00,
2013-02-08 20:00:00,20.3,18.6,29.81,NW,325,3.0,20.0,93,0.00,,---,0.00,VWS V14.01,2013-02-09 01:00:00,
2013-02-08 20:01:00,20.3,18.4,29.81,NNW,335,4.0,12.0,92,0.00,,---,0.00,VWS V14.01,2013-02-09 01:01:00,
2013-02-08 20:05:00,19.5,17.6,29.75,NE,36,4.0,16.0,92,0.00,,---,0.00,VWS V14.01,2013-02-09 01:05:00,
2013-02-08 20:06:00,20.2,18.2,29.81,NNE,14,3.0,12.0,92,0.00,,---,0.00,VWS V14.01,2013-02-09 01:06:00,
2013-02-08 20:10:00,20.2,18.2,29.80,NNW,327,6.0,12.0,92,0.00,,---,0.00,VWS V14.01,2013-02-09 01:10:00,
2013-02-08 20:11:00,20.1,18.1,29.80,NNW,348,4.0,12.0,92,0.00,,---,0.00,VWS V14.01,2013-02-09 01:11:00,
2013-02-08 20:15:00,20.1,18.1,29.80,North,360,3.0,12.0,92,0.00,,---,0.00,VWS V14.01,2013-02-09 01:15:00,
2013-02-08 20:16:00,20.0,18.0,29.79,NNE,24,2.0,18.0,92,0.00,,---,0.00,VWS V14.01,2013-02-09 01:16:00,
2013-02-08 20:20:00,20.0,18.0,29.79,NE,46,5.0,18.0,92,0.00,,---,0.00,VWS V14.01,2013-02-09 01:20:00,
2013-02-08 20:21:00,20.0,18.0,29.78,NE,39,6.0,14.0,92,0.00,,---,0.00,VWS V14.01,2013-02-09 01:21:00,
2013-02-08 20:25:00,19.9,18.2,29.78,NE,46,9.0,16.0,93,0.00,,---,0.00,VWS V14.01,2013-02-09 01:25:00,
2013-02-08 20:26:00,19.9,18.2,29.77,NE,36,4.0,14.0,93,0.00,,---,0.00,VWS V14.01,2013-02-09 01:26:00,
2013-02-08 20:30:00,19.9,18.2,29.78,NNE,22,6.0,14.0,93,0.00,,---,0.00,VWS V14.01,2013-02-09 01:30:00,
2013-02-08 20:31:00,19.9,18.2,29.77,NNE,13,4.0,18.0,93,0.00,,---,0.00,VWS V14.01,2013-02-09 01:31:00,
2013-02-08 20:35:00,19.9,18.2,29.77,NE,42,4.0,18.0,93,0.00,,---,0.00,VWS V14.01,2013-02-09 01:35:00,
2013-02-08 20:36:00,19.8,18.1,29.77,NNW,338,6.0,13.0,93,0.00,,---,0.00,VWS V14.01,2013-02-09 01:36:00,
2013-02-08 20:40:00,19.8,18.1,29.77,ESE,106,1.0,13.0,93,0.00,,---,0.00,VWS V14.01,2013-02-09 01:40:00,
2013-02-08 20:41:00,19.7,18.0,29.77,ESE,105,12.0,13.0,93,0.00,,---,0.00,VWS V14.01,2013-02-09 01:41:00,
2013-02-08 20:45:00,19.7,18.0,29.77,NNW,336,6.0,13.0,93,0.00,,---,0.00,VWS V14.01,2013-02-09 01:45:00,
2013-02-08 20:46:00,19.7,18.0,29.76,North,5,4.0,16.0,93,0.00,,---,0.00,VWS V14.01,2013-02-09 01:46:00,
2013-02-08 20:50:00,19.7,18.0,29.75,NNW,342,4.0,16.0,93,0.00,,---,0.00,VWS V14.01,2013-02-09 01:50:00,
2013-02-08 20:51:00,19.7,18.0,29.75,NNE,16,4.0,11.0,93,0.00,,---,0.00,VWS V14.01,2013-02-09 01:51:00,
2013-02-08 20:55:00,19.7,18.0,29.75,NNW,345,4.0,11.0,93,0.00,,---,0.00,VWS V14.01,2013-02-09 01:55:00,
2013-02-08 20:57:00,19.7,18.0,29.75,North,355,2.0,17.0,93,0.00,,---,0.00,VWS V14.01,2013-02-09 01:57:00,
2013-02-08 21:00:00,19.6,17.7,29.75,NNW,346,6.0,17.0,92,0.00,,---,0.00,VWS V14.01,2013-02-09 02:00:00,
2013-02-08 21:02:00,19.5,17.6,29.75,NNE,26,15.0,16.0,92,0.00,,---,0.00,VWS V14.01,2013-02-09 02:02:00,
2013-02-08 21:05:00,19.5,17.6,29.75,NE,36,4.0,16.0,92,0.00,,---,0.00,VWS V14.01,2013-02-09 02:05:00,
2013-02-08 21:07:00,19.4,17.5,29.76,NNE,30,4.0,17.0,92,0.00,,---,0.00,VWS V14.01,2013-02-09 02:07:00,
2013-02-08 21:10:00,19.3,17.4,29.76,NW,325,4.0,17.0,92,0.00,,---,0.00,VWS V14.01,2013-02-09 02:10:00,
2013-02-08 21:12:00,19.3,17.4,29.76,NNW,340,3.0,4.0,92,0.00,,---,0.00,VWS V14.01,2013-02-09 02:12:00,
2013-02-08 21:15:00,19.3,17.4,29.75,NE,44,7.0,10.0,92,0.00,,---,0.00,VWS V14.01,2013-02-09 02:15:00,
2013-02-08 21:17:00,19.2,17.3,29.75,North,5,10.0,12.0,92,0.00,,---,0.00,VWS V14.01,2013-02-09 02:17:00,
2013-02-08 21:20:00,19.2,17.3,29.75,NNE,27,5.0,12.0,92,0.00,,---,0.00,VWS V14.01,2013-02-09 02:20:00,
2013-02-08 21:22:00,19.1,17.2,29.74,North,5,2.0,15.0,92,0.00,,---,0.00,VWS V14.01,2013-02-09 02:22:00,
2013-02-08 21:25:00,19.1,17.2,29.74,North,5,6.0,15.0,92,0.00,,---,0.00,VWS V14.01,2013-02-09 02:25:00,
2013-02-08 21:27:00,19.0,17.1,29.74,NNE,29,4.0,15.0,92,0.00,,---,0.00,VWS V14.01,2013-02-09 02:27:00,
2013-02-08 21:30:00,19.0,17.1,29.74,North,11,5.0,15.0,92,0.00,,---,0.00,VWS V14.01,2013-02-09 02:30:00,
2013-02-08 21:32:00,18.9,17.0,29.73,NNE,30,9.0,19.0,92,0.00,,---,0.00,VWS V14.01,2013-02-09 02:32:00,
2013-02-08 21:35:00,18.9,17.0,29.73,North,5,4.0,19.0,92,0.00,,---,0.00,VWS V14.01,2013-02-09 02:35:00,
2013-02-08 21:37:00,18.8,16.9,29.72,WNW,284,10.0,14.0,92,0.00,,---,0.00,VWS V14.01,2013-02-09 02:37:00,
2013-02-08 21:40:00,18.8,16.9,29.72,NE,40,5.0,14.0,92,0.00,,---,0.00,VWS V14.01,2013-02-09 02:40:00,
2013-02-08 21:42:00,18.6,16.7,29.73,North,5,17.0,17.0,92,0.00,,---,0.00,VWS V14.01,2013-02-09 02:42:00,
2013-02-08 21:45:00,18.6,16.7,29.73,NNW,338,2.0,17.0,92,0.00,,---,0.00,VWS V14.01,2013-02-09 02:45:00,
2013-02-08 21:47:00,18.5,16.6,29.72,NE,49,5.0,15.0,92,0.00,,---,0.00,VWS V14.01,2013-02-09 02:47:00,
2013-02-08 21:50:00,18.5,16.6,29.72,NNE,24,9.0,15.0,92,0.00,,---,0.00,VWS V14.01,2013-02-09 02:50:00,
2013-02-08 21:53:00,18.4,16.5,29.72,NNW,338,4.0,13.0,92,0.00,,---,0.00,VWS V14.01,2013-02-09 02:53:00,
2013-02-08 21:55:00,18.4,16.5,29.72,NNE,24,7.0,13.0,92,0.00,,---,0.00,VWS V14.01,2013-02-09 02:55:00,
2013-02-08 21:58:00,18.4,16.5,29.73,North,350,0.0,16.0,92,0.00,,---,0.00,VWS V14.01,2013-02-09 02:58:00,
2013-02-08 22:00:00,18.4,16.5,29.73,North,11,2.0,16.0,92,0.00,,---,0.00,VWS V14.01,2013-02-09 03:00:00,
2013-02-08 22:03:00,18.3,16.4,29.73,ENE,58,3.0,18.0,92,0.00,,---,0.00,VWS V14.01,2013-02-09 03:03:00,
2013-02-08 22:05:00,18.3,16.4,29.73,ENE,57,2.0,18.0,92,0.00,,---,0.00,VWS V14.01,2013-02-09 03:05:00,
2013-02-08 22:08:00,18.2,16.3,29.73,NNE,33,3.0,16.0,92,0.00,,---,0.00,VWS V14.01,2013-02-09 03:08:00,
2013-02-08 22:10:00,18.2,16.3,29.73,NNE,33,3.0,16.0,92,0.00,,---,0.00,VWS V14.01,2013-02-09 03:10:00,
2013-02-08 22:13:00,18.1,16.2,29.70,North,5,6.0,19.0,92,0.00,,---,0.00,VWS V14.01,2013-02-09 03:13:00,
2013-02-08 22:15:00,18.1,16.2,29.70,North,5,6.0,19.0,92,0.00,,---,0.00,VWS V14.01,2013-02-09 03:15:00,
2013-02-08 22:18:00,18.0,16.1,29.68,NE,46,13.0,14.0,92,0.00,,---,0.00,VWS V14.01,2013-02-09 03:18:00,
2013-02-08 22:20:00,18.0,16.1,29.68,NE,46,13.0,14.0,92,0.00,,---,0.00,VWS V14.01,2013-02-09 03:20:00,
2013-02-08 22:23:00,17.9,16.0,29.68,North,5,9.0,18.0,92,0.00,,---,0.00,VWS V14.01,2013-02-09 03:23:00,
2013-02-08 22:25:00,17.9,16.0,29.68,North,5,9.0,18.0,92,0.00,,---,0.00,VWS V14.01,2013-02-09 03:25:00,
2013-02-08 22:28:00,17.9,16.0,29.69,NE,46,7.0,22.0,92,0.00,,---,0.00,VWS V14.01,2013-02-09 03:28:00,
2013-02-08 22:30:00,17.9,16.0,29.69,NE,46,7.0,22.0,92,0.00,,---,0.00,VWS V14.01,2013-02-09 03:30:00,
2013-02-08 22:33:00,17.8,15.9,29.68,NNE,19,12.0,17.0,92,0.00,,---,0.00,VWS V14.01,2013-02-09 03:33:00,
2013-02-08 22:35:00,17.7,15.8,29.62,North,355,4.0,16.0,92,0.00,,---,0.00,VWS V14.01,2013-02-09 03:35:00,
2013-02-08 22:38:00,17.8,15.9,29.68,NE,51,11.0,16.0,92,0.00,,---,0.00,VWS V14.01,2013-02-09 03:38:00,
2013-02-08 22:40:00,17.8,15.9,29.68,NE,51,11.0,16.0,92,0.00,,---,0.00,VWS V14.01,2013-02-09 03:40:00,
2013-02-08 22:43:00,17.8,15.9,29.67,NW,325,4.0,15.0,92,0.00,,---,0.00,VWS V14.01,2013-02-09 03:43:00,
2013-02-08 22:45:00,17.8,15.9,29.67,NW,325,4.0,15.0,92,0.00,,---,0.00,VWS V14.01,2013-02-09 03:45:00,
2013-02-08 22:48:00,17.8,15.9,29.67,NW,308,4.0,16.0,92,0.00,,---,0.00,VWS V14.01,2013-02-09 03:48:00,
2013-02-08 22:50:00,17.8,15.9,29.67,NW,308,4.0,16.0,92,0.00,,---,0.00,VWS V14.01,2013-02-09 03:50:00,
2013-02-08 22:53:00,17.7,15.8,29.66,NE,36,11.0,19.0,92,0.00,,---,0.00,VWS V14.01,2013-02-09 03:53:00,
2013-02-08 22:55:00,17.7,15.8,29.66,NE,36,11.0,19.0,92,0.00,,---,0.00,VWS V14.01,2013-02-09 03:55:00,
2013-02-08 22:58:00,17.8,15.9,29.65,NNE,23,7.0,7.0,92,0.00,,---,0.00,VWS V14.01,2013-02-09 03:58:00,
2013-02-08 23:00:00,17.7,15.8,29.65,NNW,345,6.0,13.0,92,0.00,,---,0.00,VWS V14.01,2013-02-09 04:00:00,
2013-02-08 23:03:00,17.8,15.9,29.65,NE,41,14.0,18.0,92,0.00,,---,0.00,VWS V14.01,2013-02-09 04:03:00,
2013-02-08 23:05:00,17.8,15.9,29.65,NNE,29,6.0,16.0,92,0.00,,---,0.00,VWS V14.01,2013-02-09 04:05:00,
2013-02-08 23:08:00,17.7,15.8,29.64,NE,55,6.0,7.0,92,0.00,,---,0.00,VWS V14.01,2013-02-09 04:08:00,
2013-02-08 23:10:00,17.7,15.8,29.64,NE,44,5.0,18.0,92,0.00,,---,0.00,VWS V14.01,2013-02-09 04:10:00,
2013-02-08 23:13:00,17.7,15.8,29.64,NNW,339,3.0,5.0,92,0.00,,---,0.00,VWS V14.01,2013-02-09 04:13:00,
2013-02-08 23:15:00,17.7,15.8,29.64,NNW,333,3.0,19.0,92,0.00,,---,0.00,VWS V14.01,2013-02-09 04:15:00,
2013-02-08 23:18:00,17.7,15.8,29.63,North,360,2.0,5.0,92,0.00,,---,0.00,VWS V14.01,2013-02-09 04:18:00,
2013-02-08 23:20:00,17.7,15.8,29.63,NE,49,4.0,15.0,92,0.00,,---,0.00,VWS V14.01,2013-02-09 04:20:00,
2013-02-08 23:24:00,17.7,15.8,29.62,NNE,17,6.0,15.0,92,0.00,,---,0.00,VWS V14.01,2013-02-09 04:24:00,
2013-02-08 23:25:00,17.7,15.8,29.63,NNW,334,13.0,16.0,92,0.00,,---,0.00,VWS V14.01,2013-02-09 04:25:00,
2013-02-08 23:29:00,17.7,15.8,29.62,NE,53,11.0,16.0,92,0.00,,---,0.00,VWS V14.01,2013-02-09 04:29:00,
2013-02-08 23:30:00,17.7,15.8,29.62,NE,36,16.0,16.0,92,0.00,,---,0.00,VWS V14.01,2013-02-09 04:30:00,
2013-02-08 23:34:00,17.7,15.8,29.62,NE,38,5.0,13.0,92,0.00,,---,0.00,VWS V14.01,2013-02-09 04:34:00,
2013-02-08 23:35:00,17.7,15.8,29.62,North,355,4.0,16.0,92,0.00,,---,0.00,VWS V14.01,2013-02-09 04:35:00,
2013-02-08 23:39:00,17.7,15.8,29.62,NNW,346,6.0,13.0,92,0.00,,---,0.00,VWS V14.01,2013-02-09 04:39:00,
2013-02-08 23:40:00,17.7,15.8,29.62,NW,315,4.0,22.0,92,0.00,,---,0.00,VWS V14.01,2013-02-09 04:40:00,
2013-02-08 23:44:00,17.7,15.8,29.61,NNE,25,5.0,15.0,92,0.00,,---,0.00,VWS V14.01,2013-02-09 04:44:00,
2013-02-08 23:45:00,17.7,15.8,29.62,North,9,5.0,15.0,92,0.00,,---,0.00,VWS V14.01,2013-02-09 04:45:00,
2013-02-08 23:49:00,17.6,15.7,29.62,NNE,28,5.0,6.0,92,0.00,,---,0.00,VWS V14.01,2013-02-09 04:49:00,
2013-02-08 23:50:00,17.6,15.7,29.61,ENE,70,4.0,16.0,92,0.00,,---,0.00,VWS V14.01,2013-02-09 04:50:00,
2013-02-08 23:54:00,17.6,15.7,29.62,NE,40,11.0,14.0,92,0.00,,---,0.00,VWS V14.01,2013-02-09 04:54:00,
2013-02-08 23:55:00,17.6,15.7,29.62,NW,319,11.0,18.0,92,0.00,,---,0.00,VWS V14.01,2013-02-09 04:55:00,
2013-02-08 23:59:00,17.5,15.6,29.61,ENE,62,5.0,18.0,92,0.00,,---,0.00,VWS V14.01,2013-02-09 04:59:00,